Location: Champseau
(45.8333°N, 1.7667°E)
Time: 06:30:39
(UTC+00:00)

Timation 2 Rocket - Pass Details

Date: 18 April 2021
Orbit: 907 x 1074 km, 70.0° (Epoch: 15 May)

Event Time Altitude Azimuth Distance (km) Brightness Sun altitude
Exits shadow 21:54:58 16° 223° (SW) 2,385 5.9 -27.2°
Maximum altitude 22:00:16 63° 301° (WNW) 1,104 4.4 -27.7°
Drops below altitude 10° 22:06:33 10° 23° (NNE) 2,713 6.7 -28.3°
Sets 22:09:06 0° 27° (NNE) 3,639 7.4 -28.5°
